[[{"header":{"parameterUnit":"m.s-1","parameterCategory":1,"la1":30.2991,"la2":30.254,"lo1":-89.0895,"lo2":-89.0444,"dy":0.0017,"dx":0.0017,"nx":28,"ny":28,"refTime":"2023-07-21T09:00:00:Z","depth":0,"parameterNumber":2,"parameterNumberName":"U-component_of_WINDS"},"data":[0,0,0,0,0,0,0,0,0,0,0,0,0,0,0,0,0,0,0,0,0,0,0,0,0,0,0,0,0,0,0,0,0,0,0,0,0,0,0,0,0,0,0,0,0,0,0,0,0,0,0,0,0,0,0,0,0,0,0.7347,0.7348,0,0.7466,0.7468,0.7469,0.7491,0.749,0.7489,0.7488,0.7614,0.7618,0.7623,0,0,0,0,0,0,0,0,0,0,0,0,0,0.7138,0.7142,0.7347,0.7348,0.735,0.7466,0.7468,0.747,0.7491,0.749,0.7489,0.7488,0.7613,0.7618,0.7623,0,0,0,0,0,0,0,0,0,0,0,0,0,0.7241,0.7143,0.7346,0.7375,0.7378,0.7466,0.7468,0.747,0.7492,0.749,0.7489,0.7487,0.7611,0.7617,0.7624,0.7693,0,0,0.7643,0.7646,0,0,0,0,0,0,0,0,0.7235,0.7248,0.7369,0.7373,0.7377,0.7462,0.7441,0.7545,0.7492,0.7449,0.7488,0.7487,0.7565,0.7575,0.7601,0.7699,0.7704,0.7644,0.7648,0.7651,0.7652,0,0,0,0,0,0,0,0.7228,0.7243,0.7394,0.7371,0.7376,0.7382,0.7394,0.746,0.7514,0.7452,0.7454,0.7468,0.7567,0.7595,0.7604,0.7706,0.7644,0.7649,0.7653,0.7656,0.7864,0.7866,0,0,0,0,0,0,0.7215,0.7237,0.739,0.7398,0.7301,0.7386,0.7401,0.7436,0.7513,0.7523,0.7469,0.7468,0.7585,0.7597,0.7609,0.7693,0.765,0.7656,0.766,0.7862,0.7864,0.7866,0,0,0,0,0,0,0.7211,0.7229,0.7386,0.7318,0.7338,0.7392,0.7431,0.744,0.7467,0.7526,0.7536,0.7487,0.7584,0.76,0.7671,0.7698,0.7659,0.7665,0.786,0.7863,0.7865,0.7863,0,0,0,0,0,0,0.7205,0.7227,0.7254,0.7318,0.7342,0.7445,0.7433,0.7443,0.7478,0.7478,0.7546,0.7555,0.7584,0.7661,0.7677,0.7706,0.767,0.7858,0.7861,0.7864,0.7861,0.7865,0.7869,0,0,0,0,0,0.7197,0.7249,0.7255,0.7273,0.7376,0.7447,0.746,0.7491,0.748,0.7507,0.7544,0.7553,0.7692,0.7668,0.7687,0.7717,0.7857,0.786,0.7864,0.7859,0.7864,0.7868,0,0,0,0,0,0,0.7188,0.7258,0.7265,0.734,0.7387,0.745,0.7486,0.7496,0.7548,0.7547,0.7584,0.7599,0.7667,0.77,0.7672,0.7787,0.7774,0.7781,0.7763,0.7769,0.7773,0.7763,0.7676,0,0,0,0,0,0.7194,0.7245,0.7304,0.7365,0.7388,0.7432,0.7465,0.7484,0.7535,0.7555,0.7598,0.7647,0.7702,0.7737,0.7791,0.7865,0.788,0.7896,0.7899,0.7902,0.7908,0.7948,0.7955,0.7879,0.7879,0.7878,0,0,0.7209,0.7253,0.7284,0.7364,0.7403,0.7454,0.7449,0.7505,0.7544,0.7564,0.7633,0.7666,0.7724,0.7796,0.783,0.7825,0.7933,0.7907,0.7909,0.7914,0.7953,0.796,0.7966,0.7881,0.7881,0.788,0,0,0.7261,0.73,0.7354,0.7392,0.745,0.7479,0.7492,0.7553,0.7575,0.7645,0.766,0.7707,0.7801,0.7841,0.7873,0.7938,0.7948,0.7955,0.7975,0.8013,0.8019,0.8025,0.8047,0.8054,0.796,0.7961,0.7961,0,0.7271,0.735,0.738,0.7434,0.7469,0.7487,0.7541,0.7578,0.7651,0.7674,0.7667,0.7783,0.7824,0.7905,0.792,0.7946,0.7961,0.7947,0.8016,0.8022,0.8027,0.8048,0.8057,0.7961,0.7961,0.7961,0.7961,0,0.7359,0.7413,0.7449,0.7517,0.7556,0.761,0.7648,0.7684,0.7699,0.7729,0.7799,0.7847,0.791,0.7931,0.7948,0.8014,0.8008,0.8008,0.7995,0.8034,0.8055,0.8063,0.7961,0.7961,0.7961,0.7961,0,0,0.741,0.7492,0.7505,0.7535,0.76,0.7642,0.7697,0.7756,0.7785,0.7835,0.7881,0.7958,0.7957,0.7994,0.8015,0.8049,0.8095,0.8045,0.8046,0.8051,0.8169,0.8168,0.8177,0.8102,0.8103,0.8105,0.8164,0,0.7469,0.7566,0.7593,0.7675,0.7724,0.7742,0.7789,0.7833,0.7862,0.7909,0.7941,0.7994,0.799,0.8012,0.8046,0.8082,0.8119,0.8078,0.8145,0.8147,0.8129,0.8188,0.8188,0.8242,0.8172,0.8174,0.8175,0,0.7551,0.76,0.7685,0.7741,0.7763,0.7805,0.7861,0.7905,0.7956,0.7974,0.8014,0.8031,0.8088,0.8072,0.815,0.8122,0.8151,0.8172,0.8175,0.8182,0.8163,0.8196,0.826,0.8267,0.8188,0.8187,0.8186,0,0.7578,0.7665,0.7727,0.7753,0.782,0.7848,0.7878,0.7927,0.796,0.8009,0.8031,0.8087,0.8117,0.816,0.8192,0.8177,0.8267,0.8254,0.8284,0.8283,0.8302,0.83,0.837,0.8321,0.8321,0.8321,0.8321,0,0.764,0.7692,0.7739,0.7778,0.7835,0.7867,0.7923,0.7954,0.7997,0.8041,0.806,0.8101,0.8141,0.8187,0.8213,0.8273,0.8287,0.8303,0.8309,0.8301,0.8299,0.832,0.8317,0.8323,0.8323,0.8322,0.8322,0,0.768,0.7714,0.7782,0.784,0.7855,0.7895,0.7944,0.7982,0.801,0.8066,0.8081,0.8126,0.8181,0.8217,0.8288,0.8305,0.8371,0.8376,0.8353,0.8356,0.8383,0.8379,0.8469,0.8481,0.8425,0.8425,0.8426,0,0.7717,0.7757,0.7817,0.7848,0.7877,0.7926,0.7959,0.7992,0.8026,0.8085,0.8115,0.8171,0.8218,0.8305,0.8345,0.8398,0.8405,0.8432,0.8413,0.8403,0.8404,0.8401,0.8404,0.8435,0.8436,0.8436,0.8436,0,0.7779,0.7793,0.7841,0.7893,0.7932,0.7976,0.8019,0.8043,0.8083,0.812,0.8176,0.8212,0.8283,0.8338,0.8395,0.8426,0.8437,0.8442,0.8451,0.8443,0.8428,0.8435,0.836,0.844,0.844,0.8439,0.8439,0.8439,0.7818,0.7853,0.7901,0.7952,0.7988,0.8027,0.8064,0.8097,0.8144,0.8203,0.822,0.8277,0.8325,0.8403,0.8434,0.848,0.8477,0.8491,0.8495,0.8497,0.8497,0.842,0.8491,0.8491,0.8491,0.8491,0.8491,0,0.7879,0.791,0.7957,0.8016,0.8057,0.8063,0.8111,0.8144,0.8194,0.8238,0.8282,0.8345,0.8398,0.8441,0.8496,0.8524,0.853,0.8537,0.8535,0.8541,0.8497,0.8483,0.8531,0.853,0.853,0.853,0.853,0.853,0.7916,0.7975,0.7995,0.8072,0.8103,0.8159,0.8185,0.8222,0.8256,0.8325,0.8369,0.8396,0.8438,0.8496,0.8544,0.8556,0.8574,0.8579,0.8592,0.8549,0.8545,0.8541,0.8527,0.8583,0.8584,0.8632,0.8632,0.8633]},{"header":{"parameterUnit":"m.s-1","parameterCategory":1,"la1":30.2991,"la2":30.254,"lo1":-89.0895,"lo2":-89.0444,"dy":0.0017,"dx":0.0017,"nx":28,"ny":28,"refTime":"2023-07-21T09:00:00:Z","depth":0,"parameterNumber":3,"parameterNumberName":"V-component_of_WINDS"},"data":[0,0,0,0,0,0,0,0,0,0,0,0,0,0,0,0,0,0,0,0,0,0,0,0,0,0,0,0,0,0,0,0,0,0,0,0,0,0,0,0,0,0,0,0,0,0,0,0,0,0,0,0,0,0,0,0,0,0,5.381,5.381,0,5.3827,5.3827,5.3828,5.3807,5.3807,5.3806,5.3805,5.3819,5.382,5.3821,0,0,0,0,0,0,0,0,0,0,0,0,0,5.3751,5.3752,5.381,5.381,5.381,5.3827,5.3827,5.3828,5.3807,5.3807,5.3806,5.3805,5.3818,5.382,5.3821,0,0,0,0,0,0,0,0,0,0,0,0,0,5.3773,5.3753,5.381,5.3802,5.3802,5.3827,5.3827,5.3828,5.3808,5.3807,5.3805,5.3804,5.3818,5.382,5.3821,5.3853,0,0,5.3826,5.3827,0,0,0,0,0,0,0,0,5.3772,5.3775,5.3803,5.3803,5.3802,5.3814,5.3812,5.3836,5.3808,5.3805,5.3805,5.3804,5.3818,5.3819,5.3825,5.3854,5.3855,5.3826,5.3827,5.3828,5.3828,0,0,0,0,0,0,0,5.3771,5.3774,5.3816,5.3803,5.3803,5.3795,5.3797,5.3816,5.3817,5.3805,5.3804,5.3807,5.3817,5.3824,5.3825,5.3855,5.3826,5.3828,5.3829,5.3829,5.3905,5.3906,0,0,0,0,0,0,5.3771,5.3773,5.3816,5.3817,5.3784,5.3797,5.38,5.3811,5.3817,5.3817,5.3808,5.3806,5.3821,5.3823,5.3826,5.386,5.3828,5.3829,5.383,5.3904,5.3905,5.3907,0,0,0,0,0,0,5.377,5.3775,5.3815,5.3795,5.3799,5.38,5.3813,5.3812,5.3818,5.3819,5.3818,5.3814,5.3821,5.3823,5.3846,5.386,5.383,5.3831,5.3903,5.3905,5.3906,5.3931,0,0,0,0,0,0,5.3768,5.3774,5.3789,5.3795,5.3801,5.3837,5.3814,5.3813,5.3822,5.3819,5.3825,5.3825,5.382,5.3843,5.3847,5.3862,5.3833,5.3902,5.3904,5.3906,5.3929,5.3934,5.3937,0,0,0,0,0,5.3766,5.3795,5.379,5.3795,5.3819,5.3838,5.3841,5.3836,5.3823,5.3836,5.3835,5.3825,5.3858,5.3846,5.385,5.3865,5.3901,5.3903,5.3905,5.3927,5.3933,5.3937,0,0,0,0,0,0,5.379,5.3796,5.379,5.3823,5.383,5.3835,5.3851,5.3843,5.3853,5.385,5.3842,5.3844,5.3867,5.3868,5.3855,5.3894,5.3877,5.388,5.3892,5.3897,5.3901,5.3899,5.3834,0,0,0,0,0,5.38,5.3817,5.3821,5.3849,5.3853,5.3851,5.386,5.3855,5.3862,5.3865,5.3866,5.3871,5.3882,5.389,5.3901,5.3929,5.3928,5.3942,5.3946,5.3949,5.3951,5.3962,5.3967,5.3915,5.3914,5.3914,0,0,5.3819,5.3824,5.3836,5.3854,5.3859,5.3874,5.3854,5.3872,5.3882,5.3867,5.3887,5.3888,5.3893,5.3918,5.3928,5.392,5.3965,5.3952,5.3955,5.3955,5.3965,5.397,5.3974,5.3916,5.3916,5.3916,0,0,5.3861,5.3869,5.3891,5.3896,5.3904,5.3902,5.3907,5.3912,5.3912,5.3933,5.392,5.3931,5.3952,5.3955,5.3959,5.3997,5.3986,5.4001,5.4022,5.4032,5.4036,5.4039,5.405,5.4054,5.4003,5.4004,5.4004,0,5.3884,5.3908,5.3903,5.3921,5.3927,5.3914,5.3934,5.3939,5.3949,5.3953,5.3943,5.3966,5.3969,5.3992,5.4,5.4006,5.4008,5.4,5.4036,5.404,5.4043,5.4052,5.4057,5.4005,5.4005,5.4005,5.4005,0,5.3933,5.3949,5.3966,5.3976,5.3984,5.4004,5.3999,5.4007,5.4001,5.3999,5.4017,5.402,5.4029,5.4034,5.4029,5.4054,5.4048,5.4038,5.402,5.4049,5.4058,5.4062,5.4007,5.4007,5.4006,5.4006,0,0,5.3993,5.3997,5.4003,5.4005,5.4011,5.4022,5.4039,5.4048,5.4054,5.406,5.4071,5.4088,5.4076,5.4081,5.4075,5.4085,5.411,5.4072,5.4072,5.4076,5.4134,5.414,5.4145,5.4103,5.4104,5.4104,5.4132,0,5.4032,5.4061,5.4055,5.4083,5.4095,5.4081,5.4095,5.4098,5.4096,5.4104,5.4101,5.4111,5.4098,5.41,5.4109,5.4105,5.4121,5.4103,5.411,5.4111,5.4107,5.415,5.4158,5.4184,5.4136,5.4137,5.4137,0,5.4082,5.409,5.4118,5.4118,5.4123,5.4136,5.4141,5.415,5.4152,5.4149,5.4153,5.4144,5.4157,5.414,5.4155,5.4143,5.4145,5.4144,5.4144,5.4143,5.4124,5.4147,5.4193,5.4196,5.4143,5.4143,5.4142,0,5.4117,5.4135,5.4153,5.4156,5.4158,5.4166,5.4166,5.4167,5.4172,5.4176,5.4178,5.4184,5.4186,5.419,5.4181,5.417,5.4196,5.418,5.4191,5.4191,5.4196,5.4196,5.424,5.4202,5.4202,5.4202,5.4202,0,5.416,5.4177,5.4169,5.418,5.4197,5.4189,5.4206,5.4204,5.4205,5.4213,5.4201,5.4209,5.4199,5.4204,5.4198,5.4209,5.4211,5.4207,5.4204,5.4207,5.4207,5.4207,5.4204,5.4203,5.4203,5.4202,5.4202,0,5.4202,5.4198,5.4216,5.4215,5.4215,5.4227,5.4225,5.4233,5.4229,5.424,5.4242,5.4235,5.4241,5.4233,5.4238,5.4234,5.4248,5.4244,5.4248,5.4246,5.4257,5.4255,5.4301,5.4305,5.4267,5.4267,5.4267,0,5.4229,5.4242,5.4241,5.4246,5.4247,5.4255,5.4259,5.4251,5.4255,5.4256,5.4263,5.4268,5.4271,5.4281,5.4275,5.4278,5.4272,5.4288,5.4273,5.4273,5.4269,5.4267,5.4267,5.4291,5.4291,5.4292,5.4292,0,5.4275,5.4271,5.4278,5.4283,5.4288,5.4291,5.4294,5.4298,5.4288,5.4293,5.4299,5.4301,5.4306,5.4309,5.431,5.4308,5.4297,5.4297,5.4299,5.4301,5.4301,5.4298,5.4254,5.4296,5.4295,5.4295,5.4295,5.4295,5.4308,5.4317,5.4316,5.4323,5.4324,5.4325,5.4332,5.4328,5.4334,5.4337,5.4331,5.4337,5.4335,5.4335,5.4334,5.4337,5.433,5.4334,5.4335,5.4335,5.4336,5.4302,5.4338,5.4338,5.4337,5.4337,5.4337,0,5.435,5.4349,5.4355,5.4358,5.4362,5.4353,5.4354,5.4357,5.4363,5.4363,5.4366,5.437,5.4373,5.4367,5.4368,5.4372,5.4366,5.4372,5.4371,5.437,5.4344,5.434,5.4376,5.4376,5.4376,5.4376,5.4376,5.4376,5.4372,5.4386,5.4381,5.4393,5.4391,5.4398,5.4399,5.4399,5.4398,5.4404,5.4406,5.4402,5.4398,5.4399,5.44,5.4398,5.4397,5.4404,5.44,5.4376,5.4372,5.4368,5.4365,5.4405,5.4405,5.4425,5.4425,5.4425]}]]